User: anonymous   Login
Location: Oshawa
(43.9000°N, 78.8670°W)
Time: 02:13:00
(UTC-04:00)
Language:

CZ-4C R/B - Orbit

View from above orbital plane
View from above orbital plane
View from above satellite
View from above satellite

Ground track
Ground track

The orbit data is extracted from the following two-line orbital elements,

1 32290U 07055B   15148.19890264  .00003632  00000-0  12410-3 0  9996
2 32290 097.5431 231.1715 0076639 278.8167 109.5490 15.28188928416840
Epoch (UTC): 28 May 2015 04:46:25
Eccentricity: 0.0076639
inclination: 97.5431°
perigee height: 428 km
apogee height: 534 km
right ascension of ascending node: 231.1715°
argument of perigee: 278.8167°
revolutions per day: 15.28188928
mean anomaly at epoch: 109.5490°
orbit number at epoch: 41684

The dashed part of the orbit path shows where the satellite is in the earth's shadow,  

DLR